FW1972 Weather Reports


time (UTC)temp
C
wind
direction
speed
KPH
gust
KPH
rain 1hr
cm
rain 24hr
cm
rain mn
cm
humidity
%
barometer
mb
20260507040100 16 221 0.0 0.0 0.00 0.00 0.00 52 1022.9
20260507034615 16 221 0.0 0.0 0.00 0.00 0.00 51 1022.7
20260507033059 16 221 0.0 0.0 0.00 0.00 0.00 50 1022.6
20260507031600 17 221 0.0 0.0 0.00 0.00 0.00 49 1022.4
20260507024604 17 221 0.0 0.0 0.00 0.00 0.00 46 1022.0
20260507023111 18 221 0.0 0.0 0.00 0.00 0.00 44 1022.0
20260507021558 18 212 0.0 0.0 0.00 0.00 0.00 44 1022.0
20260507020027 18 244 0.0 0.0 0.00 0.00 0.00 44 1021.8
20260507014539 19 285 0.0 0.0 0.00 0.00 0.00 43 1021.7
20260507011523 20 299 1.6 8.0 0.00 0.00 0.00 42 1021.7
20260507010009 20 215 0.0 6.4 0.00 0.00 0.00 42 1021.7
20260507004513 21 262 1.6 8.0 0.00 0.00 0.00 41 1021.8
20260507003007 21 327 4.8 12.9 0.00 0.00 0.00 40 1021.7
20260507001508 22 315 3.2 9.7 0.00 0.00 0.00 38 1021.7
20260507000019 22 224 1.6 12.9 0.00 0.00 0.00 38 1021.7
20260506234505 23 224 0.0 11.3 0.00 0.00 0.00 36 1021.6
20260506233004 23 296 1.6 11.3 0.00 0.00 0.00 36 1021.6
20260506231503 23 215 1.6 8.0 0.00 0.00 0.00 35 1021.7
20260506230002 23 169 3.2 14.5 0.00 0.00 0.00 35 1021.8
20260506224501 23 304 4.8 12.9 0.00 0.00 0.00 34 1021.8
20260506223127 23 175 0.0 8.0 0.00 0.00 0.00 34 1022.0
20260506221603 24 235 1.6 11.3 0.00 0.00 0.00 35 1022.2
20260506220057 24 124 1.6 12.9 0.00 0.00 0.00 35 1022.5
20260506214606 24 123 3.2 9.7 0.00 0.00 0.00 34 1022.6
20260506213053 25 228 1.6 9.7 0.00 0.00 0.00 34 1022.8
20260506211550 24 333 4.8 14.5 0.00 0.00 0.00 35 1022.8
20260506210051 24 220 3.2 12.9 0.00 0.00 0.00 35 1022.9
20260506204548 23 145 3.2 16.1 0.00 0.00 0.00 36 1022.8
20260506203047 23 284 4.8 20.9 0.00 0.00 0.00 35 1022.9
20260506201544 23 177 3.2 14.5 0.00 0.00 0.00 33 1023.1
20260506200112 23 311 6.4 12.9 0.00 0.00 0.00 32 1023.1
20260506194542 23 312 8.0 16.1 0.00 0.00 0.00 30 1023.2
20260506193042 24 295 1.6 8.0 0.00 0.00 0.00 30 1023.4
20260506191537 23 238 1.6 12.9 0.00 0.00 0.00 31 1023.4
20260506190036 23 192 3.2 9.7 0.00 0.00 0.00 30 1023.6
20260506184531 23 319 4.8 12.9 0.00 0.00 0.00 31 1023.7
20260506183030 22 331 4.8 8.0 0.00 0.00 0.00 31 1023.8
20260506181531 23 209 1.6 4.8 0.00 0.00 0.00 30 1023.9
20260506180124 22 295 1.6 8.0 0.00 0.00 0.00 34 1024.0
20260506174519 21 237 1.6 11.3 0.00 0.00 0.00 34 1023.9
20260506173015 22 289 3.2 8.0 0.00 0.00 0.00 34 1024.1
20260506171516 21 111 0.0 4.8 0.00 0.00 0.00 35 1024.0
20260506170009 21 309 1.6 6.4 0.00 0.00 0.00 35 1024.1
20260506164504 20 319 0.0 6.4 0.00 0.00 0.00 36 1024.1
20260506163107 20 226 0.0 6.4 0.00 0.00 0.00 37 1024.1
20260506161559 20 304 0.0 4.8 0.00 0.00 0.00 36 1024.1
20260506160106 20 248 0.0 1.6 0.00 0.00 0.00 37 1024.2
20260506154549 19 248 0.0 0.0 0.00 0.00 0.00 40 1024.2
20260506153045 18 248 0.0 0.0 0.00 0.00 0.00 44 1024.3
20260506151540 16 38 0.0 0.0 0.00 0.00 0.00 48 1024.3
20260506150037 15 41 0.0 0.0 0.00 0.00 0.00 53 1024.2
20260506144531 12 40 0.0 0.0 0.00 0.00 0.00 55 1024.5
20260506143026 11 171 0.0 0.0 0.00 0.00 0.00 61 1024.5
20260506141523 9 171 0.0 0.0 0.00 0.00 0.00 64 1024.5
20260506140020 8 171 0.0 0.0 0.00 0.00 0.00 65 1024.1
20260506134534 8 171 0.0 0.0 0.00 0.00 0.00 65 1024.2
20260506133017 8 171 0.0 0.0 0.00 0.00 0.00 65 1024.1
20260506131513 8 171 0.0 0.0 0.00 0.00 0.00 64 1024.2
20260506130011 8 171 0.0 0.0 0.00 0.00 0.00 64 1023.7
20260506124513 8 171 0.0 0.0 0.00 0.00 0.00 64 1023.6
20260506123009 8 171 0.0 0.0 0.00 0.00 0.00 64 1023.6
20260506121510 8 171 0.0 0.0 0.00 0.00 0.00 64 1023.5
20260506120011 8 171 0.0 0.0 0.00 0.00 0.00 63 1023.6
20260506114508 8 171 0.0 0.0 0.00 0.00 0.00 63 1023.5
20260506113007 8 171 0.0 0.0 0.00 0.00 0.00 63 1023.5
20260506111505 8 171 0.0 0.0 0.00 0.00 0.00 63 1023.3
20260506110011 8 171 0.0 0.0 0.00 0.00 0.00 63 1023.4
20260506104502 8 171 0.0 0.0 0.00 0.00 0.00 63 1023.5
20260506103002 9 171 0.0 0.0 0.00 0.00 0.00 63 1023.4